Weather History for Litchfield, MN

Change the Weather History Date:

Saturday, March 17, 2012

  Actual Average Record
Temperature  
Mean Temperature 63 °F -  
Max Temperature 73 °F 39 °F 73 °F (2012)
Min Temperature 53 °F 21 °F -9 °F (1993)
Degree Days  
Heating Degree Days 2    
Growing Degree Days 13 (Base 50)    
Moisture  
Dew Point 58 °F    
Average Humidity 87    
Maximum Humidity 100    
Minimum Humidity 65    
Precipitation  
Precipitation 0.00 in - - ()
Sea Level Pressure  
Sea Level Pressure 29.74 in    
Wind  
Wind Speed 6 mph (SSE)    
Max Wind Speed 13 mph    
Max Gust Speed 24 mph    
Visibility 8 miles    
Events      
Averages and records for this station are not official NWS values.
T = Trace of Precipitation, MM = Missing Value Source: NWS Daily Summary

Daily Weather History Graph

Daily Weather History Graph

Search for Another Location

Airport:

Trip Planner

Search our weather history database for the weather conditions in past years. The results will help you decide how hot, cold, wet, or windy it might be!

Date:

Astronomy

Mar. 17, 2012 Rise Set
Actual Time 7:25 AM CDT 7:27 PM CDT
Civil Twilight 6:56 AM CDT 7:56 PM CDT
Nautical Twilight 6:22 AM CDT 8:31 PM CDT
Astronomical Twilight 5:47 AM CDT 9:06 PM CDT
Moon 4:40 AM CDT (3/17) 2:40 PM CDT (3/17)
Length of Visible Light 13h 00m
Length of Day
12h 01m
Waning Crescent, 23% of the Moon is Illuminated
Mar 17
Waning Crescent
Mar 22
New
Mar 30
First Quarter
Apr 6
Full
Apr 13
Last Quarter

Hourly Weather History & Observations

Time (CDT) Temp. Dew Point Humidity Pressure Visibility Wind Dir Wind Speed Gust Speed Precip Events Conditions
12:14 AM 59.0 °F 55.4 °F 88% 29.77 in 10.0 mi Calm Calm - N/A   Clear
12:33 AM 60.8 °F 55.4 °F 82% 29.77 in 10.0 mi SSE 3.5 mph - N/A   Clear
12:53 AM 59.0 °F 55.4 °F 88% 29.76 in 10.0 mi SSE 4.6 mph - N/A   Clear
1:13 AM 57.2 °F 55.4 °F 94% 29.76 in 10.0 mi SSE 4.6 mph - N/A   Clear
1:33 AM 57.2 °F 55.4 °F 94% 29.76 in 10.0 mi SSE 3.5 mph - N/A   Clear
1:53 AM 57.2 °F 55.4 °F 94% 29.76 in 7.0 mi SSE 4.6 mph - N/A   Clear
2:13 AM 57.2 °F 55.4 °F 94% 29.76 in 7.0 mi SSE 3.5 mph - N/A   Clear
2:33 AM 55.4 °F 55.4 °F 100% 29.76 in 7.0 mi SSE 4.6 mph - N/A   Clear
2:54 AM 55.4 °F 55.4 °F 100% 29.76 in 7.0 mi SSE 5.8 mph - N/A   Clear
3:13 AM 55.4 °F 55.4 °F 100% 29.76 in 7.0 mi SSE 5.8 mph - N/A   Clear
3:33 AM 55.4 °F 55.4 °F 100% 29.76 in 5.0 mi SSE 5.8 mph - N/A   Clear
3:53 AM 55.4 °F 55.4 °F 100% 29.75 in 5.0 mi SSE 6.9 mph - N/A   Clear
4:13 AM 55.4 °F 55.4 °F 100% 29.75 in 5.0 mi SSE 6.9 mph - N/A   Clear
4:33 AM 55.4 °F 53.6 °F 94% 29.74 in 5.0 mi SSE 6.9 mph - N/A   Clear
4:53 AM 55.4 °F 53.6 °F 94% 29.74 in 5.0 mi SSE 5.8 mph - N/A   Clear
5:13 AM 55.4 °F 53.6 °F 94% 29.74 in 5.0 mi SSE 5.8 mph - N/A   Clear
5:33 AM 53.6 °F 53.6 °F 100% 29.74 in 5.0 mi SSE 5.8 mph - N/A   Clear
5:53 AM 53.6 °F 53.6 °F 100% 29.74 in 5.0 mi SSE 5.8 mph - N/A   Clear
6:13 AM 53.6 °F 53.6 °F 100% 29.74 in 5.0 mi SSE 6.9 mph - N/A   Clear
6:33 AM 53.6 °F 53.6 °F 100% 29.74 in 4.0 mi SSE 5.8 mph - N/A   Clear
7:13 AM 53.6 °F 53.6 °F 100% 29.75 in 4.0 mi SSE 4.6 mph - N/A   Clear
7:33 AM 55.4 °F 55.4 °F 100% 29.75 in 3.0 mi SSE 5.8 mph - N/A   Clear
7:53 AM 55.4 °F 55.4 °F 100% 29.75 in 4.0 mi SSE 6.9 mph - N/A   Clear
8:13 AM 55.4 °F 55.4 °F 100% 29.76 in 4.0 mi SSE 6.9 mph - N/A   Clear
8:33 AM 55.4 °F 55.4 °F 100% 29.76 in 4.0 mi SSE 5.8 mph - N/A   Clear
8:53 AM 57.2 °F 55.4 °F 94% 29.76 in 4.0 mi SSE 6.9 mph - N/A   Scattered Clouds
9:13 AM 57.2 °F 57.2 °F 100% 29.76 in 5.0 mi SSE 5.8 mph - N/A   Mostly Cloudy
9:33 AM 57.2 °F 57.2 °F 100% 29.77 in 5.0 mi SSE 4.6 mph - N/A   Overcast
9:53 AM 59.0 °F 57.2 °F 94% 29.76 in 4.0 mi SSE 5.8 mph - N/A   Overcast
10:13 AM 60.8 °F 60.8 °F 100% 29.76 in 5.0 mi SSE 5.8 mph - N/A   Mostly Cloudy
10:33 AM 62.6 °F 60.8 °F 94% 29.76 in 7.0 mi SSE 4.6 mph - N/A   Overcast
10:53 AM 62.6 °F 60.8 °F 94% 29.77 in 7.0 mi South 5.8 mph - N/A   Overcast
11:13 AM 64.4 °F 60.8 °F 88% 29.77 in 7.0 mi SSE 5.8 mph - N/A   Overcast
11:34 AM 64.4 °F 60.8 °F 88% 29.77 in 7.0 mi South 5.8 mph - N/A   Overcast
11:53 AM 64.4 °F 60.8 °F 88% 29.78 in 7.0 mi South 5.8 mph - N/A   Overcast
12:13 PM 64.4 °F 60.8 °F 88% 29.77 in 7.0 mi South 5.8 mph - N/A   Overcast
12:33 PM 64.4 °F 60.8 °F 88% 29.77 in 7.0 mi SSE 5.8 mph - N/A   Overcast
12:53 PM 64.4 °F 60.8 °F 88% 29.77 in 7.0 mi SSE 8.1 mph - N/A   Overcast
1:13 PM 64.4 °F 60.8 °F 88% 29.76 in 10.0 mi SSE 8.1 mph - N/A   Overcast
1:33 PM 64.4 °F 60.8 °F 88% 29.76 in 10.0 mi SSE 10.4 mph - N/A   Overcast
1:52 PM 66.2 °F 60.8 °F 83% 29.76 in 10.0 mi SSE 11.5 mph 18.4 mph N/A   Overcast
2:13 PM 66.2 °F 60.8 °F 83% 29.75 in 10.0 mi SSE 10.4 mph 17.3 mph N/A   Overcast
2:33 PM 66.2 °F 60.8 °F 83% 29.74 in 10.0 mi SSE 12.7 mph 21.9 mph N/A   Overcast
2:53 PM 68.0 °F 60.8 °F 78% 29.73 in 10.0 mi SSE 8.1 mph 24.2 mph N/A   Overcast
3:13 PM 69.8 °F 60.8 °F 73% 29.73 in 10.0 mi SSE 10.4 mph 19.6 mph N/A   Mostly Cloudy
3:33 PM 69.8 °F 60.8 °F 73% 29.72 in 10.0 mi SSE 10.4 mph 18.4 mph N/A   Mostly Cloudy
3:53 PM 71.6 °F 60.8 °F 69% 29.71 in 10.0 mi SSE 10.4 mph 17.3 mph N/A   Mostly Cloudy
4:13 PM 71.6 °F 60.8 °F 69% 29.71 in 10.0 mi SSE 9.2 mph 17.3 mph N/A   Mostly Cloudy
4:33 PM 71.6 °F 60.8 °F 69% 29.71 in 10.0 mi SSE 9.2 mph - N/A   Mostly Cloudy
4:53 PM 71.6 °F 60.8 °F 69% 29.70 in 10.0 mi SSE 9.2 mph - N/A   Overcast
5:13 PM 73.4 °F 60.8 °F 65% 29.70 in 10.0 mi SSE 10.4 mph 16.1 mph N/A   Mostly Cloudy
5:33 PM 73.4 °F 60.8 °F 65% 29.70 in 10.0 mi SSE 10.4 mph 16.1 mph N/A   Mostly Cloudy
5:53 PM 73.4 °F 60.8 °F 65% 29.70 in 10.0 mi SSE 11.5 mph 16.1 mph N/A   Overcast
6:13 PM 71.6 °F 60.8 °F 69% 29.70 in 10.0 mi SSE 10.4 mph 17.3 mph N/A   Mostly Cloudy
6:33 PM 71.6 °F 60.8 °F 69% 29.70 in 10.0 mi SSE 9.2 mph 16.1 mph N/A   Mostly Cloudy
6:53 PM 69.8 °F 59.0 °F 68% 29.71 in 10.0 mi SE 9.2 mph 16.1 mph N/A   Overcast
7:13 PM 69.8 °F 60.8 °F 73% 29.71 in 10.0 mi SSE 8.1 mph - N/A   Mostly Cloudy
7:33 PM 68.0 °F 60.8 °F 78% 29.71 in 10.0 mi SE 5.8 mph - N/A   Scattered Clouds
7:53 PM 66.2 °F 60.8 °F 83% 29.71 in 10.0 mi SE 4.6 mph - N/A   Clear
8:13 PM 64.4 °F 59.0 °F 83% 29.71 in 10.0 mi SE 5.8 mph - N/A   Clear
8:33 PM 62.6 °F 57.2 °F 82% 29.71 in 10.0 mi SE 6.9 mph - N/A   Clear
9:13 PM 62.6 °F 57.2 °F 82% 29.71 in 10.0 mi SE 6.9 mph - N/A   Clear
9:33 PM 62.6 °F 57.2 °F 82% 29.71 in 10.0 mi SE 8.1 mph - N/A   Clear
9:53 PM 64.4 °F 57.2 °F 77% 29.71 in 10.0 mi SSE 8.1 mph - N/A   Clear
10:13 PM 64.4 °F 57.2 °F 77% 29.72 in 10.0 mi SSE 6.9 mph - N/A   Clear
10:33 PM 64.4 °F 57.2 °F 77% 29.72 in 10.0 mi SSE 6.9 mph - N/A   Clear
10:53 PM 64.4 °F 57.2 °F 77% 29.72 in 10.0 mi SSE 8.1 mph - N/A   Clear
11:13 PM 64.4 °F 57.2 °F 77% 29.72 in 10.0 mi SSE 6.9 mph - N/A   Clear
11:33 PM 64.4 °F 57.2 °F 77% 29.72 in 10.0 mi SSE 5.8 mph - N/A   Clear
11:53 PM 64.4 °F 57.2 °F 77% 29.72 in 10.0 mi SSE 9.2 mph - N/A   Scattered Clouds